Location: Newark
(20.0000°S, 47.0000°E)
Time: 22:23:11
(UTC+00:00)

Hubble Space Telescope - Visible Passes

Search period start: 25 March 2019 00:00
Search period end: 04 April 2019 00:00
Orbit: 537 x 540 km, 28.5° (Epoch: 25 March)

Date Brightness Start Highest point End Pass type
(mag) Time Alt. Az. Time Alt. Az. Time Alt. Az.
25 Mar 2.9 01:37:51 13° NNW 01:40:17 20° NNE 01:43:19 10° ENE visible
26 Mar 2.4 01:28:25 22° N 01:29:45 26° NNE 01:33:16 10° E visible
27 Mar 1.9 01:18:56 35° NNE 01:19:14 35° NNE 01:23:03 10° E visible
28 Mar 1.7 01:09:23 43° ENE 01:09:23 43° ENE 01:12:45 10° E visible
29 Mar 2.2 00:59:46 36° E 00:59:46 36° E 01:02:22 10° ESE visible
29 Mar 1.6 02:35:40 10° W 02:39:33 38° SSW 02:43:26 10° SE visible
30 Mar 2.9 00:50:05 25° ESE 00:50:05 25° ESE 00:51:56 10° ESE visible
30 Mar 1.9 02:25:27 10° WSW 02:29:10 33° SSW 02:32:56 10° SE visible
31 Mar 3.5 00:40:22 18° ESE 00:40:22 18° ESE 00:41:28 10° ESE visible
31 Mar 2.0 02:15:43 13° WSW 02:18:46 29° S 02:22:27 10° SE visible
01 Apr 3.9 00:30:35 12° ESE 00:30:35 12° ESE 00:30:58 10° ESE visible
01 Apr 2.2 02:05:56 16° SW 02:08:25 27° S 02:11:59 10° SE visible
02 Apr 2.3 01:56:08 18° SW 01:58:03 25° S 02:01:32 10° SE visible
03 Apr 2.3 01:46:19 21° SSW 01:47:41 25° S 01:51:08 10° SE visible
